STARLINK-33607, 63323

Orbit data source: Space-Track

STARLINK-33607, 63323 is a payload satellite owned by SpaceX/Seattle (US) in LEO that was launched on Tue, 18 Mar 2025 UTC via an FALCON 9 launch vehicle from the Air Force Eastern Test Range (AFETR). Payload-class satellites include a variety of spacecraft equipped with specific instruments for various scientific and technological missions. These include communications satellites like Starlink; space stations such as the ISS; scientific satellites like the Hubble; Earth observation satellites from companies like Planet Labs, Umbra, and HawkEye 360; GPS; miniature CubeSats for education and research; and military/defense satellites.

Loading next visibility...
Identifier
63323, 2025-057S
Orbit
LEO
Last TLE update
9 hours ago
Origin
Manufacturer
SpaceX/Seattle
Mission
Operational Commercial Communications
Bus & Motor
STARLINK V2MO, Unknown motor
Mass
575 kg wet, ~530 kg dry
Launch date (UTC)
2025-03-18 (2 months ago)
Launch vehicle
FALCON 9
Launch site
Air Force Eastern Test Range (AFETR)
Object type
Payload
Rocket body
Debris
Shape & HBR
Box + 1 Pan, 29 m
Radar Cross Section
41.120 m², Large (>1 m²)

Expand to show TLE details & history

TLE from 9 hours ago
0 STARLINK-33607
1 63323U 25057S   25128.83060299  .00000162  00000-0  15423-4 0  9999
2 63323  43.0034 312.5010 0001525 279.9684  80.0996 15.27577871  9116
Epoch: 2025-05-08T19:56Z
Definitive object data (Epoch: 2025-05-08T19:56:04.098Z)
Latitude
0.00002°
Longitude
146.58848°
Altitude
482.652 km
Speed
7.626 km/s
True Right ascension
20h 50m 00s
True Declination
0° 00' 00"
Sunlit
Object was in daylight at TLE epoch
Visualization TLE readout
Latitude
0.22006°
Longitude
144.60631°
Altitude
482.583 km
Speed
7.626 km/s
Apparent Right ascension
22h 38m 18s
Apparent Declination
-22° 52' 20"
Sunlit
Object is in daylight
Visualization observer readout
Local Sidereal Time
13:29:44
Azimuth
77.821° E
Elevation
-50.122°
Doppler factor
1
Orbital elements
Apogee altitude
486.047 km
Perigee altitude
483.953 km
Semi-major axis
6,863.137 km
Eccentricity
0.0001525
Inclination
43.0034°
RAAN
312.501°
Arg. of periapsis
279.9684°
True anomaly
80.11682°
Mean anomaly
80.0996°
Eccentric anomaly
80.10821°
Mean motion
3.81733 °/min
BSTAR
0.000015423
Orbital period
94.31 mins
Loading maneuver chart data...
Loading SW <> Apogee altitude chart data...
Loading historical data...
Loading historical data...
Loading historical data...
Loading historical data...
Loading historical data...
Loading historical data...
Loading historical data...

STARLINK-33607 Visibility forecast

Observer location: undefined°, undefined°

Span
Click to sort rows by Start time (UTC) header in descending order
Start Az.
Max El. time (UTC)
Max El. Az.
Max El.
End time (UTC)
End Az.
5 mins2025-05-09 14:57:05.389Z199.497° SSW2025-05-09 15:00:05.389Z141.983° SSE22.289°2025-05-09 15:02:05.389Z100.856° ESE
6 mins2025-05-09 16:36:05.389Z253.372° W2025-05-09 16:39:05.389Z63.677° ENE42.392°2025-05-09 16:42:05.389Z71.544° E
5 mins2025-05-09 18:16:05.389Z297.086° NW2025-05-09 18:18:05.389Z21.06° NNE37.173°2025-05-09 18:21:05.389Z76.124° E
5 mins2025-05-09 19:55:05.389Z290.104° WNW2025-05-09 19:57:05.389Z82.454° E44.539°2025-05-09 20:00:05.389Z106.725° ESE
4 mins2025-05-09 21:34:05.389Z249.028° W2025-05-09 21:35:05.389Z226.914° WSW22.004°2025-05-09 21:38:05.389Z163.649° S
|